Skip Page Navigation
NASA JPL Caltech
NASA Logo - Jet Propulsion Laboratory + View the NASA Portal
+ Center for Near-Earth Object Studies
JPL Home Earth Solar System Stars & Galaxies Technology
JPL Solar System Dynamics
BODIES ORBITS EPHEMERIDES TOOLS PHYSICAL DATA DISCOVERY FAQ SITE MAP
JPL Small-Body Database Browser
Search: [ help ]  
32117 (2000 LD5)
Classification: Main-belt Asteroid          SPK-ID: 2032117
Ephemeris | Orbit Diagram | Orbital Elements | Mission Design | Physical Parameters | Discovery Circumstances | Close-Approach Data ]

[ show orbit diagram ]
Orbital Elements at Epoch 2459000.5 (2020-May-31.0) TDB
Reference: JPL 24 (heliocentric ecliptic J2000)
 Element Value Uncertainty (1-sigma)   Units 
e .2035167946843051 3.5027e-08  
a 2.789335361569836 1.2385e-08 au
q 2.221658769483556 9.6732e-08 au
i 7.583694124412465 4.9843e-06 deg
node 177.7761329991036 2.6961e-05 deg
peri 102.9307908875285 2.9558e-05 deg
M 90.85526243571493 1.1276e-05 deg
tp 2458571.065321781942
(2019-Mar-28.56532178)
5.3141e-05 TDB
period 1701.568847130748
4.66
1.1333e-05
3.103e-08
d
yr
n .2115694587421756 1.4091e-09 deg/d
Q 3.357011953656116 1.4906e-08 au
  Orbit Determination Parameters
   # obs. used (total)      1152  
   data-arc span      8482 days (23.22 yr)  
   first obs. used      1996-09-17  
   last obs. used      2019-12-08  
   planetary ephem.      DE431  
   SB-pert. ephem.      SB431-N16  
   condition code      0  
   norm. resid. RMS      .5536  
   source      ORB  
   producer      Otto Matic  
   solution date      2020-Feb-23 02:38:01  

Additional Information
 Earth MOID = 1.22057 au 
 Jupiter MOID = 1.86346 au 
 T_jup = 3.287 
[ hide covariance matrix ]
Orbital Elements at Epoch 2456914.5 (2014-Sep-14.0) TDB
Reference: JPL 24 (heliocentric ecliptic J2000)
 Element Value Uncertainty (1-sigma)   Units 
e .2036161591979305 3.4899e-08  
q 2.221988268888362 9.6474e-08 au
tp 2456871.378019812429
(2014-Aug-01.87801981)
5.4337e-05 TDB
node 177.816899529167 2.694e-05 deg
peri 103.3221824278725 2.9547e-05 deg
i 7.585823504006051 4.9863e-06 deg
  Orbit Determination Parameters
   # obs. used (total)      1152  
   data-arc span      8482 days (23.22 yr)  
   first obs. used      1996-09-17  
   last obs. used      2019-12-08  
   planetary ephem.      DE431  
   SB-pert. ephem.      SB431-N16  
   condition code      0  
   norm. resid. RMS      .5536  
   source      ORB  
   producer      Otto Matic  
   solution date      2020-Feb-23 02:38:01  

Additional Information
 Jupiter MOID = 1.86346 au 
 T_jup = 3.287 
Orbit Covariance (6×6)
  e q tp node peri i
e 1.217965159463211E-15 -3.349182264488212E-15 3.764367908694185E-13 -2.283042301867893E-15 4.698313800962174E-14 -1.56498820402093E-15
q -3.349182264488212E-15 9.307190788937424E-15 -1.162496280249889E-12 5.56420962588338E-15 -1.561121045818557E-13 4.687942162831973E-15
tp 3.764367908694185E-13 -1.162496280249889E-12 2.952526842929862E-9 1.620205254008981E-12 6.667169229205998E-10 -3.639311703143794E-12
node -2.283042301867893E-15 5.56420962588338E-15 1.620205254008981E-12 7.257447210501328E-10 -7.185108789142337E-10 -3.517429017319922E-12
peri 4.698313800962174E-14 -1.561121045818557E-13 6.667169229205998E-10 -7.185108789142337E-10 8.730104630185533E-10 2.759493188579549E-12
i -1.56498820402093E-15 4.687942162831973E-15 -3.639311703143794E-12 -3.517429017319922E-12 2.759493188579549E-12 2.486289915239981E-11

Ephemeris | Orbit Diagram | Orbital Elements | Mission Design | Physical Parameters | Discovery Circumstances | Close-Approach Data ]

Physical Parameter Table
Parameter Symbol Value Units Sigma Reference Notes
absolute magnitude H 14.6   n/a MPO351052  
diameter diameter 7.335 km 0.060 urn:nasa:pds:neowise_diameters_albedos::2.0[mainbelt] (http://adsabs.harvard.edu/abs/2011ApJ...741...68M)  
geometric albedo albedo 0.052   0.009 urn:nasa:pds:neowise_diameters_albedos::2.0[mainbelt] (http://adsabs.harvard.edu/abs/2011ApJ...741...68M)  

32117 (2000 LD5)          Discovered 2000-Jun-05 by LINEAR at Socorro
Reference: 20011130/Numbers.arcLast Updated: 2004-04-19

[ show close-approach data ]
Alternate Designations
 2000 LD5 = 1996 SB = 1999 CP74 
Ephemeris | Orbit Diagram | Orbital Elements | Mission Design | Physical Parameters | Discovery Circumstances | Close-Approach Data ]
ABOUT SSD CREDITS/AWARDS PRIVACY/COPYRIGHT GLOSSARY LINKS
FirstGov 2020-Jul-10 11:03 UT
(server date/time)  
NASA Home Page
Site Manager:   Ryan S. Park
Webmaster  Alan B. Chamberlin